Wind_Speed
13 12 10 8 7 7 6 5 5 4 3 2 2 3 4 5 5 6 7 8 8 9 9 10 10 10 10 11 11 12 12 13 13 14 14 15 15 16 17 17 17 18 18
14 13 11 9 8 7 7 6 5 4 3 2 3 4 5 6 7 7 8 9 9 9 10 10 11 11 11 12 12 13 13 14 14 15 15 16 16 17 17 18 18 18 18
15 14 12 10 9 8 7 6 5 4 3 3 4 4 5 6 7 8 9 9 10 10 10 10 11 12 12 13 13 14 14 15 15 16 16 16 17 17 17 17 17 18 18
16 14 12 11 10 9 7 6 5 4 3 4 4 5 6 7 8 9 9 10 10 11 11 12 12 13 13 14 14 14 15 15 16 16 16 17 17 17 17 17 17 18 18
16 15 13 12 10 9 8 7 6 5 4 5 5 6 7 8 8 9 10 11 11 12 12 13 13 14 14 14 15 15 16 16 17 17 17 17 17 17 17 17 18 18 18
17 16 14 12 11 9 8 7 7 6 6 6 6 7 8 9 10 10 11 12 13 13 14 14 14 15 15 15 16 16 16 17 17 17 18 18 18 18 18 18 18 18 18
19 18 15 13 12 10 9 8 7 7 7 7 8 9 9 10 11 12 13 14 14 14 15 15 15 16 16 16 17 17 17 18 18 19 19 19 19 19 19 19 19 19 19
21 19 17 15 13 12 10 9 9 9 9 9 10 10 11 12 13 14 14 15 15 16 16 16 16 17 17 18 18 18 19 19 20 20 21 21 21 21 21 21 21 21 21
22 20 18 16 15 13 12 11 11 11 11 11 11 12 13 14 15 15 16 16 16 17 17 17 18 18 18 19 19 20 20 21 21 22 23 23 23 23 23 23 23 23 23
24 22 20 18 17 15 14 13 13 13 13 13 13 14 15 15 16 16 17 17 18 18 18 19 19 19 20 20 21 21 22 22 23 24 24 25 25 25 25 25 25 25 25
26 24 22 20 19 18 16 15 15 15 15 15 15 16 16 16 17 17 18 18 18 19 19 20 20 20 21 22 23 23 24 24 25 26 26 26 27 27 28 28 28 28 28
28 26 24 23 21 20 19 18 17 17 17 17 17 17 17 17 18 18 19 19 19 20 20 21 21 22 22 23 24 25 26 26 27 28 28 29 29 29 30 30 30 30 30
31 29 27 25 24 22 21 20 20 19 19 19 19 19 19 19 19 19 20 20 21 21 22 22 23 23 24 25 25 26 27 28 29 30 30 31 31 31 32 32 32 32 32
33 31 29 28 26 25 24 23 22 22 22 21 21 21 21 21 21 21 21 21 22 22 23 23 24 25 26 27 27 28 29 29 30 31 32 33 33 34 34 35 35 35 35
35 33 32 30 29 28 27 26 25 25 24 24 23 23 23 23 23 23 23 23 24 24 24 25 26 27 27 28 29 30 31 31 32 33 34 34 35 36 36 37 37 38 38
38 36 35 33 31 30 29 29 28 28 27 26 26 25 25 25 25 25 25 26 26 26 26 27 28 28 29 30 31 32 33 33 34 35 36 37 37 38 39 39 40 40 40
40 38 36 35 34 33 32 32 31 30 30 29 29 28 28 28 27 27 27 28 28 28 29 29 30 31 32 33 34 35 35 36 37 37 38 38 39 40 41 41 42 42 42
42 40 38 37 36 36 35 34 34 33 32 31 31 31 30 30 30 30 30 30 31 31 31 32 33 33 34 35 36 37 37 38 39 40 40 41 41 42 43 43 43 44 44
43 42 40 40 38 38 37 36 36 35 34 34 33 33 33 33 32 32 32 32 33 33 33 34 35 36 37 38 39 40 40 41 41 42 42 43 43 44 44 45 45 45 45
44 43 42 41 40 40 39 39 38 37 37 36 36 35 35 35 34 34 34 34 35 35 36 37 38 39 40 41 42 42 42 43 43 43 44 44 45 45 46 46 47 47 46
46 45 44 43 42 41 41 41 40 39 39 39 38 37 37 37 37 36 36 36 37 38 38 39 40 41 42 43 44 43 43 43 44 44 45 45 46 47 48 48 48 47 47
46 46 46 45 44 43 43 43 42 42 41 40 39 39 39 39 38 38 38 39 39 40 41 41 42 43 43 45 45 45 44 43 43 45 45 46 47 47 48 48 48 48 48
46 46 46 46 46 45 45 44 44 43 42 42 41 41 40 40 40 40 40 41 42 42 43 43 44 45 45 45 46 46 46 45 44 44 45 46 46 47 47 48 48 49 49
46 46 46 47 46 46 46 45 45 44 43 43 42 42 42 42 42 42 42 43 43 44 44 45 46 46 46 46 46 46 47 47 46 45 44 45 45 46 47 48 49 49 50
45 46 46 47 47 47 47 47 46 45 45 44 43 43 43 43 43 43 43 44 44 45 45 46 46 47 46 46 46 46 46 47 47 47 45 45 45 46 48 49 49 49 50
46 46 46 47 47 47 47 47 47 46 46 45 44 44 44 44 44 44 45 45 45 46 46 47 47 46 46 46 46 46 46 46 45 46 45 45 45 46 48 48 48 48 49
Wind_Direction
221 224 228 234 241 246 250 252 252 254 258 283 319 335 337 336 337 337 336 335 332 330 330 329 328 326 324 323 323 322 320 318 316 315 315 315 316 315 314 314 314 314 314
224 228 232 238 245 249 251 252 254 256 268 296 321 332 334 335 334 333 332 329 327 325 325 324 324 323 323 322 322 320 318 317 316 315 314 314 314 313 313 313 313 313 313
226 228 233 238 244 248 249 250 253 262 281 305 319 326 329 331 330 329 328 325 323 322 322 322 321 320 320 320 320 318 317 316 316 315 313 313 313 313 313 313 312 312 312
226 228 232 237 241 245 248 251 259 269 285 303 312 319 323 326 325 324 324 322 321 321 321 321 320 319 319 318 318 317 317 317 316 315 314 313 312 312 312 312 311 311 311
226 227 230 234 237 242 247 255 264 273 284 296 303 310 317 321 321 321 321 321 322 323 322 321 320 319 319 317 316 316 316 317 316 314 314 312 311 311 310 309 309 309 309
226 227 227 229 233 238 244 254 265 274 282 290 297 305 311 315 317 320 322 323 324 324 322 321 320 320 319 317 316 315 314 315 314 313 312 311 310 309 308 307 306 306 306
227 228 227 229 232 237 244 254 264 272 279 286 293 301 307 311 315 319 322 323 323 323 322 321 320 319 319 317 316 314 313 312 312 310 309 309 308 307 305 305 304 304 303
229 229 228 230 234 240 247 255 264 271 277 283 290 296 302 307 312 316 319 320 320 321 321 320 319 318 318 316 315 313 312 311 310 309 308 307 306 304 303 302 301 300 300
230 230 231 233 237 243 249 257 264 269 273 279 285 291 297 303 307 312 315 316 317 317 317 317 317 317 316 314 313 312 311 310 309 308 306 305 304 303 302 300 299 298 298
230 231 233 236 240 245 251 257 263 267 270 274 279 284 290 296 301 306 310 312 313 314 314 315 315 314 313 312 311 311 310 309 308 307 306 305 304 302 301 300 298 297 297
231 232 234 238 243 247 252 257 262 266 268 271 275 280 284 290 296 301 305 308 310 311 312 312 312 311 311 311 310 309 309 308 307 306 305 304 303 302 301 299 298 297 296
230 232 235 239 244 249 254 258 262 265 268 270 273 277 281 286 291 296 300 303 306 308 309 309 309 309 309 309 308 308 307 306 305 304 303 303 302 301 300 299 298 296 295
231 233 236 241 245 250 254 258 262 264 267 269 272 275 279 284 288 293 297 300 303 305 306 307 307 307 306 306 306 306 305 305 304 303 302 302 301 300 299 298 296 296 294
232 235 238 242 246 250 254 258 262 264 266 268 271 274 278 283 287 290 294 297 300 302 303 305 305 305 305 304 304 303 303 303 303 302 302 301 300 299 298 297 296 294 293
233 235 238 242 246 249 253 257 260 263 265 267 270 273 278 282 286 289 292 295 298 300 301 302 302 303 303 302 302 301 301 301 301 301 300 300 299 298 297 296 295 294 293
233 235 238 242 245 249 252 255 258 261 263 266 269 272 276 280 284 287 290 293 296 298 299 300 301 301 301 301 301 300 300 301 300 300 300 299 298 298 297 296 295 294 293
234 235 238 241 244 247 250 254 257 259 262 265 268 271 274 278 282 286 289 292 294 296 297 298 299 299 299 299 299 299 299 299 299 299 299 299 298 298 297 296 296 295 294
234 236 238 240 243 246 249 252 255 259 261 264 267 270 273 276 280 283 286 289 292 294 295 296 297 297 297 297 297 298 298 298 299 299 299 298 298 298 297 297 296 295 294
234 236 238 240 242 245 248 251 255 258 260 263 266 269 272 275 278 281 284 287 289 291 292 293 294 295 295 296 296 297 298 298 299 299 299 298 298 298 298 297 296 295 294
234 235 237 239 241 244 247 250 253 256 259 262 265 268 271 274 277 279 282 285 287 288 290 291 292 293 293 294 295 296 297 298 299 299 298 298 298 298 298 297 296 295 294
235 235 237 239 241 244 246 249 252 255 258 261 264 267 270 273 275 277 280 283 284 286 288 289 290 292 293 293 294 295 296 297 298 297 298 298 298 298 298 297 296 296 295
236 237 238 239 241 243 246 248 251 255 258 261 263 266 269 271 274 276 279 281 283 285 287 288 289 291 292 292 293 294 294 295 296 297 298 299 299 298 298 298 298 297 295
237 239 239 239 241 243 245 248 251 254 257 260 263 265 268 271 273 276 278 280 282 284 286 287 289 290 291 292 293 294 295 295 295 296 298 298 298 298 298 298 298 297 296
239 240 241 242 243 245 247 249 252 255 257 260 262 265 267 270 272 274 277 279 281 283 285 286 288 289 291 292 293 294 296 297 297 297 298 298 298 298 298 299 298 297 296
241 242 243 244 245 247 248 250 252 254 257 259 261 264 267 270 272 274 276 278 280 283 284 286 288 289 291 292 293 294 296 297 298 299 299 299 299 299 299 299 299 298 298
242 243 244 244 246 248 250 252 254 255 257 260 262 265 267 270 273 275 277 279 281 283 285 286 288 289 291 292 293 295 296 297 298 299 299 300 300 300 300 300 299 299 299
Height
5884 5885 5886 5888 5889 5890 5890 5891 5892 5892 5893 5894 5894 5894 5894 5895 5895 5895 5895 5895 5894 5894 5893 5892 5892 5891 5890 5890 5889 5888 5887 5886 5885 5884 5883 5882 5881 5880 5879 5878 5877 5876 5874
5883 5884 5885 5887 5888 5889 5889 5890 5891 5892 5892 5893 5893 5893 5894 5894 5894 5894 5894 5893 5893 5893 5892 5891 5891 5890 5889 5888 5887 5886 5885 5884 5883 5882 5881 5880 5879 5878 5877 5876 5875 5873 5872
5881 5883 5884 5885 5887 5888 5888 5889 5890 5891 5891 5892 5892 5892 5893 5893 5893 5893 5893 5892 5892 5891 5891 5890 5889 5888 5887 5887 5886 5885 5884 5882 5881 5880 5879 5878 5877 5876 5875 5873 5872 5871 5870
5879 5881 5882 5884 5885 5886 5887 5888 5889 5890 5890 5891 5891 5892 5892 5892 5892 5892 5892 5891 5891 5890 5889 5888 5888 5887 5886 5885 5884 5883 5882 5881 5880 5878 5877 5876 5875 5873 5872 5871 5870 5869 5867
5877 5879 5881 5882 5884 5885 5886 5887 5888 5889 5889 5890 5890 5890 5891 5891 5891 5891 5890 5890 5889 5889 5888 5887 5886 5885 5884 5883 5882 5881 5880 5879 5877 5876 5875 5874 5872 5871 5870 5868 5867 5866 5865
5875 5877 5879 5881 5882 5884 5885 5886 5887 5887 5888 5888 5889 5889 5889 5889 5889 5889 5889 5888 5888 5887 5886 5885 5884 5883 5882 5881 5880 5879 5878 5877 5875 5874 5873 5872 5870 5869 5867 5866 5864 5863 5862
5872 5874 5877 5878 5880 5882 5883 5884 5885 5886 5886 5887 5887 5888 5888 5888 5888 5888 5887 5886 5886 5885 5884 5883 5883 5881 5880 5879 5878 5877 5876 5874 5873 5872 5871 5869 5868 5866 5865 5863 5862 5860 5859
5870 5872 5874 5876 5878 5880 5881 5882 5883 5884 5884 5885 5885 5886 5886 5886 5886 5886 5885 5884 5884 5883 5882 5882 5881 5879 5878 5877 5876 5875 5873 5872 5871 5869 5868 5866 5865 5863 5862 5860 5859 5857 5856
5867 5869 5872 5874 5875 5877 5879 5880 5881 5882 5883 5883 5884 5884 5884 5884 5884 5883 5883 5882 5882 5881 5880 5879 5878 5877 5876 5875 5873 5872 5871 5869 5868 5866 5865 5863 5862 5860 5858 5857 5855 5854 5852
5863 5866 5869 5871 5873 5874 5876 5877 5879 5880 5880 5881 5881 5882 5882 5882 5881 5881 5881 5880 5879 5879 5878 5877 5876 5875 5873 5872 5871 5869 5868 5866 5865 5863 5862 5860 5858 5857 5855 5853 5852 5850 5849
5860 5863 5865 5867 5869 5871 5873 5874 5876 5877 5878 5878 5879 5879 5879 5879 5879 5879 5878 5877 5877 5876 5875 5874 5873 5872 5871 5869 5868 5866 5864 5863 5861 5860 5858 5856 5854 5853 5851 5849 5848 5846 5844
5856 5859 5861 5864 5866 5868 5870 5871 5873 5874 5875 5875 5876 5876 5876 5876 5876 5876 5875 5875 5874 5873 5872 5871 5870 5869 5868 5866 5864 5863 5861 5859 5857 5856 5854 5852 5850 5848 5846 5844 5843 5841 5839
5851 5854 5857 5860 5862 5864 5866 5867 5869 5870 5871 5872 5873 5873 5873 5873 5873 5872 5872 5871 5871 5870 5869 5868 5866 5865 5864 5862 5861 5859 5857 5855 5853 5851 5849 5847 5845 5843 5841 5839 5837 5836 5834
5847 5850 5853 5855 5858 5860 5862 5863 5865 5866 5867 5868 5869 5869 5869 5869 5869 5869 5868 5868 5867 5866 5865 5864 5863 5861 5860 5858 5856 5855 5853 5851 5849 5847 5844 5842 5840 5838 5836 5834 5831 5830 5828
5841 5845 5848 5851 5853 5855 5857 5859 5860 5861 5862 5863 5864 5865 5865 5865 5865 5864 5864 5863 5863 5862 5861 5860 5858 5857 5855 5853 5851 5850 5848 5846 5844 5841 5839 5836 5834 5832 5829 5827 5825 5823 5821
5835 5839 5842 5845 5848 5850 5852 5854 5855 5856 5857 5858 5859 5860 5860 5860 5860 5859 5859 5858 5858 5857 5856 5855 5853 5851 5850 5848 5846 5844 5842 5840 5837 5835 5832 5830 5827 5825 5822 5820 5818 5815 5813
5829 5833 5836 5839 5842 5844 5846 5848 5849 5851 5852 5853 5854 5854 5854 5854 5854 5854 5854 5853 5852 5851 5850 5849 5847 5846 5844 5842 5840 5837 5835 5833 5831 5828 5825 5823 5820 5817 5815 5812 5810 5807 5805
5823 5826 5830 5833 5836 5838 5840 5842 5843 5845 5846 5847 5848 5848 5849 5849 5849 5849 5848 5847 5846 5845 5844 5843 5841 5839 5837 5835 5833 5831 5828 5826 5823 5821 5818 5815 5812 5809 5806 5804 5801 5799 5796
5816 5820 5823 5826 5829 5831 5833 5835 5837 5838 5840 5840 5841 5842 5842 5843 5843 5842 5842 5841 5840 5839 5837 5836 5834 5832 5831 5828 5826 5824 5821 5818 5816 5813 5810 5806 5803 5801 5798 5795 5792 5789 5787
5809 5812 5816 5819 5821 5824 5826 5828 5830 5832 5833 5834 5834 5835 5836 5836 5836 5836 5835 5834 5833 5832 5830 5829 5827 5825 5823 5821 5818 5816 5814 5811 5808 5805 5801 5798 5795 5791 5788 5785 5782 5779 5777
5801 5805 5808 5811 5814 5817 5819 5821 5823 5824 5826 5827 5827 5828 5828 5829 5828 5828 5828 5827 5826 5825 5823 5821 5819 5817 5815 5812 5810 5808 5806 5803 5800 5796 5792 5789 5786 5782 5779 5775 5772 5769 5766
5793 5797 5800 5803 5806 5809 5811 5813 5815 5817 5818 5819 5820 5820 5821 5821 5821 5820 5820 5819 5818 5817 5815 5813 5811 5809 5807 5804 5801 5799 5798 5797 5791 5787 5783 5780 5776 5772 5769 5765 5762 5758 5755
5785 5788 5791 5795 5797 5800 5803 5805 5807 5809 5810 5811 5812 5812 5812 5813 5813 5812 5812 5811 5809 5808 5807 5804 5802 5800 5798 5795 5791 5789 5787 5786 5784 5781 5776 5771 5766 5762 5758 5755 5751 5747 5744
5776 5780 5783 5786 5789 5791 5794 5796 5798 5800 5802 5803 5803 5804 5804 5804 5804 5804 5803 5802 5801 5799 5798 5795 5793 5790 5788 5786 5782 5779 5776 5774 5772 5771 5768 5762 5757 5753 5748 5744 5740 5736 5732
5768 5771 5774 5777 5780 5782 5785 5787 5789 5791 5793 5794 5795 5795 5795 5795 5795 5795 5794 5793 5791 5790 5788 5786 5783 5781 5778 5775 5773 5770 5766 5763 5760 5758 5757 5753 5748 5743 5738 5733 5729 5725 5720
5759 5762 5765 5767 5770 5773 5775 5778 5780 5782 5783 5785 5786 5786 5786 5786 5785 5785 5784 5783 5782 5780 5778 5776 5774 5771 5768 5765 5763 5760 5757 5754 5750 5747 5745 5742 5738 5733 5728 5722 5718 5713 5708